Tabellarische Ansicht des 7.10.2016


Die einzelnen Werte des Tages

Uhrzeit Temperatur Luftdruck Luftfeuchte Wind Hi-Wind Taupunkt THW Index Wind Chill Heat Index Solar- strahlung Regen

00:00

10.2 C

1019.7 hpa

94 %

8.0 km/h aus 117

16.1 km/h aus N

9.3 C

9.5 C

9.3 C

10.4 C

0 W/m

0.00 mm

00:05

10.2 C

1019.7 hpa

94 %

11.3 km/h aus 115

16.1 km/h aus NNW

9.3 C

8.9 C

8.7 C

10.4 C

0 W/m

0.00 mm

00:10

10.2 C

1019.7 hpa

94 %

9.7 km/h aus 115

17.7 km/h aus N

9.3 C

9.2 C

9.0 C

10.4 C

0 W/m

0.00 mm

00:15

10.2 C

1019.7 hpa

94 %

8.0 km/h aus 116

16.1 km/h aus NW

9.3 C

9.5 C

9.3 C

10.4 C

0 W/m

0.00 mm

00:20

10.2 C

1019.7 hpa

94 %

8.0 km/h aus 117

20.9 km/h aus N

9.3 C

9.5 C

9.3 C

10.4 C

0 W/m

0.00 mm

00:25

10.2 C

1019.7 hpa

94 %

8.0 km/h aus 117

16.1 km/h aus NNW

9.3 C

9.5 C

9.3 C

10.4 C

0 W/m

0.00 mm

00:30

10.2 C

1019.7 hpa

94 %

8.0 km/h aus 116

19.3 km/h aus NNW

9.3 C

9.5 C

9.3 C

10.4 C

0 W/m

0.00 mm

00:35

10.2 C

1019.7 hpa

94 %

11.3 km/h aus 117

19.3 km/h aus NNW

9.3 C

8.9 C

8.7 C

10.4 C

0 W/m

0.00 mm

00:40

10.2 C

1019.7 hpa

94 %

8.0 km/h aus 114

17.7 km/h aus NNW

9.3 C

9.5 C

9.3 C

10.4 C

0 W/m

0.00 mm

00:45

10.2 C

1019.6 hpa

94 %

8.0 km/h aus 115

17.7 km/h aus NNW

9.3 C

9.5 C

9.3 C

10.4 C

0 W/m

0.00 mm

00:50

10.2 C

1019.6 hpa

94 %

9.7 km/h aus 117

19.3 km/h aus N

9.3 C

9.2 C

9.0 C

10.4 C

0 W/m

0.00 mm

00:55

10.2 C

1019.6 hpa

94 %

9.7 km/h aus 117

19.3 km/h aus NNW

9.3 C

9.2 C

9.0 C

10.4 C

0 W/m

0.00 mm

01:00

10.3 C

1019.5 hpa

94 %

9.7 km/h aus 116

16.1 km/h aus NNW

9.4 C

9.3 C

9.1 C

10.5 C

0 W/m

0.00 mm

01:05

10.3 C

1019.5 hpa

94 %

8.0 km/h aus 115

12.9 km/h aus NNW

9.4 C

9.6 C

9.3 C

10.5 C

0 W/m

0.00 mm

01:10

10.3 C

1019.5 hpa

94 %

6.4 km/h aus 114

11.3 km/h aus N

9.4 C

9.9 C

9.7 C

10.5 C

0 W/m

0.00 mm

01:15

10.3 C

1019.3 hpa

94 %

8.0 km/h aus 115

16.1 km/h aus N

9.4 C

9.6 C

9.3 C

10.5 C

0 W/m

0.00 mm

01:20

10.3 C

1019.3 hpa

94 %

8.0 km/h aus 117

12.9 km/h aus NNW

9.4 C

9.6 C

9.4 C

10.6 C

0 W/m

0.00 mm

01:25

10.3 C

1019.3 hpa

93 %

8.0 km/h aus 117

12.9 km/h aus NNW

9.3 C

9.6 C

9.4 C

10.6 C

0 W/m

0.00 mm

01:30

10.3 C

1019.2 hpa

93 %

8.0 km/h aus 115

19.3 km/h aus NNW

9.3 C

9.6 C

9.4 C

10.6 C

0 W/m

0.00 mm

01:35

10.3 C

1019.2 hpa

93 %

9.7 km/h aus 114

19.3 km/h aus N

9.3 C

9.3 C

9.1 C

10.6 C

0 W/m

0.00 mm

01:40

10.3 C

1019.2 hpa

93 %

8.0 km/h aus 116

17.7 km/h aus N

9.3 C

9.6 C

9.4 C

10.6 C

0 W/m

0.00 mm

01:45

10.4 C

1019.3 hpa

93 %

9.7 km/h aus 117

19.3 km/h aus NNW

9.3 C

9.4 C

9.2 C

10.6 C

0 W/m

0.00 mm

01:50

10.3 C

1019.3 hpa

93 %

11.3 km/h aus 117

19.3 km/h aus NNE

9.3 C

9.1 C

8.8 C

10.6 C

0 W/m

0.00 mm

01:55

10.3 C

1019.3 hpa

93 %

11.3 km/h aus 116

20.9 km/h aus N

9.3 C

9.1 C

8.8 C

10.6 C

0 W/m

0.00 mm

02:00

10.3 C

1019.3 hpa

93 %

12.9 km/h aus 115

27.4 km/h aus N

9.3 C

8.7 C

8.4 C

10.6 C

0 W/m

0.00 mm

02:05

10.3 C

1019.3 hpa

93 %

9.7 km/h aus 115

20.9 km/h aus NNW

9.3 C

9.3 C

9.1 C

10.6 C

0 W/m

0.00 mm

02:10

10.3 C

1019.3 hpa

93 %

11.3 km/h aus 116

22.5 km/h aus NNW

9.3 C

9.1 C

8.8 C

10.6 C

0 W/m

0.00 mm

02:15

10.3 C

1019.1 hpa

93 %

9.7 km/h aus 117

19.3 km/h aus NNW

9.3 C

9.3 C

9.1 C

10.6 C

0 W/m

0.00 mm

02:20

10.3 C

1019.1 hpa

93 %

9.7 km/h aus 117

20.9 km/h aus NW

9.3 C

9.3 C

9.1 C

10.6 C

0 W/m

0.00 mm

02:25

10.3 C

1019.1 hpa

93 %

12.9 km/h aus 117

24.1 km/h aus N

9.3 C

8.7 C

8.4 C

10.6 C

0 W/m

0.00 mm

02:30

10.3 C

1019.1 hpa

92 %

11.3 km/h aus 114

20.9 km/h aus NNW

9.1 C

9.0 C

8.8 C

10.5 C

0 W/m

0.00 mm

02:35

10.3 C

1019.1 hpa

92 %

11.3 km/h aus 116

19.3 km/h aus NNW

9.1 C

9.0 C

8.8 C

10.5 C

0 W/m

0.00 mm

02:40

10.3 C

1019.1 hpa

92 %

12.9 km/h aus 117

27.4 km/h aus N

9.0 C

8.6 C

8.4 C

10.4 C

0 W/m

0.00 mm

02:45

10.3 C

1019.1 hpa

92 %

9.7 km/h aus 117

19.3 km/h aus N

9.0 C

9.2 C

9.1 C

10.4 C

0 W/m

0.00 mm

02:50

10.3 C

1019.1 hpa

92 %

12.9 km/h aus 116

24.1 km/h aus NNW

9.0 C

8.6 C

8.4 C

10.4 C

0 W/m

0.00 mm

02:55

10.3 C

1019.1 hpa

92 %

9.7 km/h aus 116

22.5 km/h aus N

9.0 C

9.2 C

9.1 C

10.4 C

0 W/m

0.00 mm

03:00

10.2 C

1019.0 hpa

93 %

11.3 km/h aus 114

20.9 km/h aus N

9.1 C

8.9 C

8.7 C

10.4 C

0 W/m

0.00 mm

03:05

10.2 C

1019.0 hpa

93 %

9.7 km/h aus 117

19.3 km/h aus NNE

9.1 C

9.2 C

9.0 C

10.4 C

0 W/m

0.00 mm

03:10

10.2 C

1019.0 hpa

93 %

11.3 km/h aus 115

25.7 km/h aus NNW

9.1 C

8.9 C

8.7 C

10.4 C

0 W/m

0.00 mm

03:15

10.2 C

1018.7 hpa

93 %

11.3 km/h aus 117

19.3 km/h aus NNW

9.1 C

8.9 C

8.7 C

10.4 C

0 W/m

0.00 mm

03:20

10.2 C

1018.7 hpa

92 %

11.3 km/h aus 117

19.3 km/h aus NNW

9.0 C

8.9 C

8.7 C

10.4 C

0 W/m

0.00 mm

03:25

10.2 C

1018.7 hpa

92 %

11.3 km/h aus 114

20.9 km/h aus NNW

9.0 C

8.9 C

8.7 C

10.4 C

0 W/m

0.00 mm

03:30

10.2 C

1018.7 hpa

92 %

9.7 km/h aus 116

20.9 km/h aus NNW

9.0 C

9.2 C

9.0 C

10.4 C

0 W/m

0.00 mm

03:35

10.2 C

1018.7 hpa

92 %

11.3 km/h aus 117

19.3 km/h aus N

9.0 C

8.9 C

8.7 C

10.4 C

0 W/m

0.00 mm

03:40

10.2 C

1018.7 hpa

92 %

9.7 km/h aus 117

17.7 km/h aus NNW

9.0 C

9.2 C

9.0 C

10.4 C

0 W/m

0.00 mm

03:45

10.2 C

1018.7 hpa

92 %

12.9 km/h aus 117

25.7 km/h aus NNW

9.0 C

8.5 C

8.3 C

10.4 C

0 W/m

0.00 mm

03:50

10.3 C

1018.7 hpa

92 %

14.5 km/h aus 116

25.7 km/h aus NNE

9.0 C

8.2 C

8.1 C

10.4 C

0 W/m

0.00 mm

03:55

10.3 C

1018.7 hpa

92 %

11.3 km/h aus 114

22.5 km/h aus N

9.0 C

8.9 C

8.8 C

10.4 C

0 W/m

0.00 mm

04:00

10.3 C

1018.6 hpa

92 %

11.3 km/h aus 117

20.9 km/h aus NNW

9.0 C

8.9 C

8.8 C

10.4 C

0 W/m

0.00 mm

04:05

10.3 C

1018.6 hpa

92 %

9.7 km/h aus 117

16.1 km/h aus N

9.0 C

9.2 C

9.1 C

10.4 C

0 W/m

0.00 mm

04:10

10.3 C

1018.6 hpa

92 %

11.3 km/h aus 117

24.1 km/h aus NNW

9.0 C

8.9 C

8.8 C

10.4 C

0 W/m

0.00 mm

04:15

10.2 C

1018.6 hpa

92 %

12.9 km/h aus 117

22.5 km/h aus NNW

9.0 C

8.5 C

8.3 C

10.4 C

0 W/m

0.00 mm

04:20

10.2 C

1018.6 hpa

92 %

12.9 km/h aus 114

20.9 km/h aus N

9.0 C

8.5 C

8.3 C

10.4 C

0 W/m

0.00 mm

04:25

10.2 C

1018.6 hpa

91 %

9.7 km/h aus 113

19.3 km/h aus N

8.8 C

9.2 C

9.0 C

10.4 C

0 W/m

0.00 mm

04:30

10.2 C

1018.4 hpa

91 %

11.3 km/h aus 117

19.3 km/h aus NE

8.8 C

8.9 C

8.7 C

10.4 C

0 W/m

0.25 mm

04:35

10.2 C

1018.4 hpa

91 %

11.3 km/h aus 117

19.3 km/h aus NW

8.8 C

8.9 C

8.7 C

10.4 C

0 W/m

0.00 mm

04:40

10.2 C

1018.4 hpa

91 %

11.3 km/h aus 117

22.5 km/h aus N

8.8 C

8.8 C

8.7 C

10.3 C

0 W/m

0.00 mm

04:45

10.2 C

1018.4 hpa

91 %

11.3 km/h aus 115

20.9 km/h aus NNW

8.8 C

8.8 C

8.7 C

10.3 C

0 W/m

0.00 mm

04:50

10.2 C

1018.4 hpa

91 %

9.7 km/h aus 114

19.3 km/h aus N

8.8 C

9.1 C

8.9 C

10.3 C

0 W/m

0.00 mm

04:55

10.2 C

1018.4 hpa

91 %

11.3 km/h aus 116

20.9 km/h aus NNW

8.8 C

8.8 C

8.7 C

10.3 C

0 W/m

0.00 mm

05:00

10.2 C

1018.2 hpa

91 %

11.3 km/h aus 117

20.9 km/h aus NNW

8.8 C

8.8 C

8.7 C

10.3 C

0 W/m

0.00 mm

05:05

10.2 C

1018.2 hpa

91 %

9.7 km/h aus 117

16.1 km/h aus NNW

8.8 C

9.1 C

8.9 C

10.3 C

0 W/m

0.00 mm

05:10

10.2 C

1018.2 hpa

91 %

9.7 km/h aus 117

16.1 km/h aus N

8.8 C

9.1 C

8.9 C

10.3 C

0 W/m

0.00 mm

05:15

10.2 C

1018.1 hpa

91 %

11.3 km/h aus 112

20.9 km/h aus NNW

8.8 C

8.8 C

8.7 C

10.3 C

0 W/m

0.00 mm

05:20

10.2 C

1018.1 hpa

91 %

8.0 km/h aus 116

17.7 km/h aus N

8.8 C

9.4 C

9.2 C

10.3 C

0 W/m

0.00 mm

05:25

10.2 C

1018.1 hpa

91 %

9.7 km/h aus 117

17.7 km/h aus NNE

8.8 C

9.1 C

8.9 C

10.3 C

0 W/m

0.00 mm

05:30

10.2 C

1018.1 hpa

91 %

11.3 km/h aus 116

22.5 km/h aus NNW

8.8 C

8.8 C

8.7 C

10.3 C

0 W/m

0.00 mm

05:35

10.2 C

1018.1 hpa

91 %

11.3 km/h aus 117

19.3 km/h aus NW

8.8 C

8.8 C

8.7 C

10.3 C

0 W/m

0.00 mm

05:40

10.2 C

1018.1 hpa

91 %

9.7 km/h aus 115

19.3 km/h aus NNW

8.8 C

9.1 C

8.9 C

10.3 C

0 W/m

0.00 mm

05:45

10.2 C

1018.1 hpa

91 %

11.3 km/h aus 115

19.3 km/h aus N

8.8 C

8.8 C

8.7 C

10.3 C

0 W/m

0.00 mm

05:50

10.2 C

1018.1 hpa

92 %

11.3 km/h aus 116

20.9 km/h aus NNW

8.9 C

8.8 C

8.7 C

10.3 C

0 W/m

0.00 mm

05:55

10.2 C

1018.1 hpa

92 %

9.7 km/h aus 117

19.3 km/h aus NNW

8.9 C

9.1 C

8.9 C

10.3 C

0 W/m

0.00 mm

06:00

10.2 C

1018.2 hpa

92 %

11.3 km/h aus 116

19.3 km/h aus NNW

8.9 C

8.8 C

8.7 C

10.3 C

0 W/m

0.00 mm

06:05

10.2 C

1018.2 hpa

92 %

11.3 km/h aus 117

24.1 km/h aus NNW

8.9 C

8.8 C

8.7 C

10.3 C

0 W/m

0.00 mm

06:10

10.2 C

1018.2 hpa

92 %

9.7 km/h aus 114

19.3 km/h aus N

8.9 C

9.1 C

8.9 C

10.3 C

0 W/m

0.00 mm

06:15

10.2 C

1018.2 hpa

92 %

9.7 km/h aus 115

16.1 km/h aus N

8.9 C

9.1 C

8.9 C

10.3 C

0 W/m

0.00 mm

06:20

10.2 C

1018.2 hpa

92 %

9.7 km/h aus 117

17.7 km/h aus NNW

8.9 C

9.1 C

8.9 C

10.3 C

0 W/m

0.00 mm

06:25

10.2 C

1018.2 hpa

92 %

11.3 km/h aus 117

22.5 km/h aus NNW

8.9 C

8.8 C

8.7 C

10.3 C

0 W/m

0.00 mm

06:30

10.2 C

1018.1 hpa

92 %

9.7 km/h aus 116

24.1 km/h aus NNW

9.0 C

9.2 C

9.0 C

10.4 C

0 W/m

0.00 mm

06:35

10.2 C

1018.1 hpa

92 %

9.7 km/h aus 115

19.3 km/h aus N

9.0 C

9.2 C

9.0 C

10.4 C

0 W/m

0.00 mm

06:40

10.2 C

1018.1 hpa

92 %

9.7 km/h aus 115

19.3 km/h aus N

8.9 C

9.1 C

8.9 C

10.3 C

0 W/m

0.00 mm

06:45

10.2 C

1018.1 hpa

92 %

9.7 km/h aus 116

20.9 km/h aus NNE

9.0 C

9.2 C

9.0 C

10.4 C

0 W/m

0.00 mm

06:50

10.2 C

1018.1 hpa

92 %

9.7 km/h aus 117

17.7 km/h aus N

9.0 C

9.2 C

9.0 C

10.4 C

0 W/m

0.00 mm

06:55

10.2 C

1018.1 hpa

92 %

8.0 km/h aus 116

17.7 km/h aus N

9.0 C

9.4 C

9.3 C

10.4 C

0 W/m

0.00 mm

07:00

10.2 C

1018.1 hpa

92 %

9.7 km/h aus 117

17.7 km/h aus N

9.0 C

9.2 C

9.0 C

10.4 C

0 W/m

0.00 mm

07:05

10.2 C

1018.1 hpa

92 %

11.3 km/h aus 114

17.7 km/h aus N

9.0 C

8.9 C

8.7 C

10.4 C

0 W/m

0.00 mm

07:10

10.2 C

1018.1 hpa

92 %

11.3 km/h aus 115

20.9 km/h aus N

9.0 C

8.9 C

8.7 C

10.4 C

0 W/m

0.00 mm

07:15

10.2 C

1018.1 hpa

92 %

11.3 km/h aus 117

20.9 km/h aus NNW

9.0 C

8.9 C

8.7 C

10.4 C

0 W/m

0.00 mm

07:20

10.2 C

1018.1 hpa

92 %

11.3 km/h aus 117

19.3 km/h aus NNW

9.0 C

8.9 C

8.7 C

10.4 C

0 W/m

0.00 mm

07:25

10.3 C

1018.1 hpa

92 %

9.7 km/h aus 117

19.3 km/h aus NNW

9.0 C

9.2 C

9.1 C

10.4 C

0 W/m

0.00 mm

07:30

10.3 C

1018.0 hpa

92 %

9.7 km/h aus 117

20.9 km/h aus NNW

9.0 C

9.2 C

9.1 C

10.4 C

0 W/m

0.00 mm

07:35

10.3 C

1018.0 hpa

92 %

9.7 km/h aus 114

16.1 km/h aus N

9.0 C

9.2 C

9.1 C

10.4 C

1 W/m

0.00 mm

07:40

10.2 C

1018.0 hpa

92 %

11.3 km/h aus 116

17.7 km/h aus NNW

9.0 C

8.9 C

8.7 C

10.4 C

5 W/m

0.00 mm

07:45

10.2 C

1018.1 hpa

92 %

9.7 km/h aus 118

16.1 km/h aus NNW

9.0 C

9.2 C

9.0 C

10.4 C

6 W/m

0.00 mm

07:50

10.2 C

1018.1 hpa

92 %

9.7 km/h aus 117

16.1 km/h aus N

9.0 C

9.2 C

9.0 C

10.4 C

9 W/m

0.00 mm

07:55

10.2 C

1018.1 hpa

92 %

9.7 km/h aus 117

20.9 km/h aus N

9.0 C

9.2 C

9.0 C

10.4 C

11 W/m

0.00 mm

08:00

10.2 C

1018.1 hpa

92 %

8.0 km/h aus 115

17.7 km/h aus N

9.0 C

9.4 C

9.3 C

10.4 C

16 W/m

0.00 mm

08:05

10.2 C

1018.1 hpa

93 %

9.7 km/h aus 115

19.3 km/h aus NNW

9.1 C

9.2 C

9.0 C

10.4 C

20 W/m

0.00 mm

08:10

10.3 C

1018.1 hpa

93 %

9.7 km/h aus 117

17.7 km/h aus N

9.2 C

9.3 C

9.1 C

10.5 C

16 W/m

0.00 mm

08:15

10.3 C

1018.2 hpa

93 %

8.0 km/h aus 117

17.7 km/h aus NNW

9.3 C

9.6 C

9.4 C

10.6 C

15 W/m

0.00 mm

08:20

10.3 C

1018.2 hpa

93 %

9.7 km/h aus 116

19.3 km/h aus NNW

9.3 C

9.3 C

9.1 C

10.6 C

26 W/m

0.00 mm

08:25

10.4 C

1018.2 hpa

93 %

8.0 km/h aus 116

16.1 km/h aus NNW

9.3 C

9.7 C

9.4 C

10.6 C

32 W/m

0.00 mm

08:30

10.4 C

1018.2 hpa

93 %

8.0 km/h aus 114

17.7 km/h aus N

9.3 C

9.7 C

9.4 C

10.6 C

35 W/m

0.00 mm

08:35

10.4 C

1018.2 hpa

93 %

8.0 km/h aus 116

12.9 km/h aus N

9.4 C

9.7 C

9.6 C

10.6 C

33 W/m

0.00 mm

08:40

10.4 C

1018.2 hpa

92 %

9.7 km/h aus 115

22.5 km/h aus N

9.2 C

9.4 C

9.3 C

10.6 C

33 W/m

0.00 mm

08:45

10.5 C

1018.4 hpa

92 %

9.7 km/h aus 117

19.3 km/h aus NW

9.3 C

9.5 C

9.3 C

10.7 C

36 W/m

0.00 mm

08:50

10.6 C

1018.4 hpa

92 %

11.3 km/h aus 117

20.9 km/h aus NNE

9.3 C

9.3 C

9.1 C

10.7 C

50 W/m

0.00 mm

08:55

10.6 C

1018.4 hpa

92 %

9.7 km/h aus 115

19.3 km/h aus N

9.3 C

9.6 C

9.4 C

10.7 C

54 W/m

0.00 mm

09:00

10.6 C

1018.4 hpa

92 %

8.0 km/h aus 115

22.5 km/h aus N

9.4 C

9.9 C

9.7 C

10.8 C

60 W/m

0.00 mm

09:05

10.7 C

1018.4 hpa

92 %

8.0 km/h aus 117

17.7 km/h aus N

9.4 C

9.9 C

9.8 C

10.8 C

63 W/m

0.00 mm

09:10

10.7 C

1018.4 hpa

92 %

8.0 km/h aus 116

14.5 km/h aus NNW

9.4 C

9.9 C

9.8 C

10.8 C

106 W/m

0.00 mm

09:15

10.8 C

1018.5 hpa

92 %

8.0 km/h aus 117

14.5 km/h aus N

9.5 C

10.1 C

9.9 C

10.9 C

136 W/m

0.00 mm

09:20

10.8 C

1018.5 hpa

92 %

8.0 km/h aus 117

14.5 km/h aus NE

9.6 C

10.2 C

10.0 C

11.0 C

103 W/m

0.00 mm

09:25

10.9 C

1018.5 hpa

92 %

6.4 km/h aus 114

11.3 km/h aus N

9.6 C

10.6 C

10.4 C

11.1 C

73 W/m

0.00 mm

09:30

10.9 C

1018.5 hpa

92 %

8.0 km/h aus 116

16.1 km/h aus N

9.7 C

10.3 C

10.1 C

11.1 C

63 W/m

0.00 mm

09:35

10.9 C

1018.5 hpa

92 %

8.0 km/h aus 117

20.9 km/h aus N

9.7 C

10.3 C

10.1 C

11.1 C

79 W/m

0.00 mm

09:40

11.0 C

1018.5 hpa

91 %

8.0 km/h aus 117

20.9 km/h aus N

9.6 C

10.3 C

10.2 C

11.1 C

91 W/m

0.00 mm

09:45

11.1 C

1018.6 hpa

91 %

4.8 km/h aus 117

11.3 km/h aus NNE

9.6 C

11.1 C

11.0 C

11.2 C

110 W/m

0.00 mm

09:50

11.1 C

1018.6 hpa

91 %

8.0 km/h aus 114

19.3 km/h aus N

9.6 C

10.4 C

10.3 C

11.2 C

86 W/m

0.00 mm

09:55

11.1 C

1018.6 hpa

91 %

9.7 km/h aus 114

19.3 km/h aus NNE

9.7 C

10.1 C

10.0 C

11.2 C

77 W/m

0.00 mm

10:00

11.1 C

1018.5 hpa

91 %

8.0 km/h aus 117

19.3 km/h aus NNE

9.7 C

10.4 C

10.3 C

11.2 C

84 W/m

0.00 mm

10:05

11.2 C

1018.5 hpa

91 %

8.0 km/h aus 117

16.1 km/h aus NNW

9.8 C

10.5 C

10.4 C

11.3 C

159 W/m

0.00 mm

10:10

11.2 C

1018.5 hpa

91 %

8.0 km/h aus 117

16.1 km/h aus NNE

9.8 C

10.6 C

10.4 C

11.3 C

177 W/m

0.00 mm

10:15

11.3 C

1018.5 hpa

91 %

6.4 km/h aus 116

11.3 km/h aus N

9.9 C

11.0 C

10.9 C

11.4 C

189 W/m

0.00 mm

10:20

11.5 C

1018.5 hpa

91 %

8.0 km/h aus 114

19.3 km/h aus N

10.1 C

10.9 C

10.8 C

11.6 C

147 W/m

0.00 mm

10:25

11.6 C

1018.5 hpa

90 %

9.7 km/h aus 117

19.3 km/h aus N

10.0 C

10.7 C

10.6 C

11.7 C

190 W/m

0.00 mm

10:30

11.7 C

1018.6 hpa

90 %

6.4 km/h aus 117

14.5 km/h aus NNE

10.1 C

11.3 C

11.3 C

11.7 C

151 W/m

0.00 mm

10:35

11.7 C

1018.6 hpa

89 %

9.7 km/h aus 116

24.1 km/h aus N

10.0 C

10.8 C

10.7 C

11.8 C

121 W/m

0.00 mm

10:40

11.7 C

1018.6 hpa

89 %

9.7 km/h aus 115

19.3 km/h aus NNE

10.0 C

10.8 C

10.7 C

11.8 C

149 W/m

0.00 mm

10:45

11.8 C

1018.6 hpa

89 %

9.7 km/h aus 114

17.7 km/h aus NNE

10.0 C

10.8 C

10.8 C

11.8 C

153 W/m

0.00 mm

10:50

11.8 C

1018.6 hpa

88 %

8.0 km/h aus 116

20.9 km/h aus NE

9.9 C

11.2 C

11.2 C

11.8 C

100 W/m

0.00 mm

10:55

11.8 C

1018.6 hpa

88 %

8.0 km/h aus 117

19.3 km/h aus NW

9.9 C

11.2 C

11.2 C

11.8 C

100 W/m

0.00 mm

11:00

11.8 C

1018.6 hpa

88 %

9.7 km/h aus 118

17.7 km/h aus N

9.9 C

10.9 C

10.9 C

11.8 C

130 W/m

0.00 mm

11:05

11.9 C

1018.6 hpa

88 %

11.3 km/h aus 117

19.3 km/h aus NNE

10.0 C

10.7 C

10.7 C

11.9 C

114 W/m

0.00 mm

11:10

11.9 C

1018.6 hpa

87 %

8.0 km/h aus 114

16.1 km/h aus N

9.8 C

11.2 C

11.2 C

11.9 C

82 W/m

0.00 mm

11:15

11.9 C

1018.6 hpa

87 %

8.0 km/h aus 116

20.9 km/h aus N

9.8 C

11.2 C

11.2 C

11.9 C

123 W/m

0.00 mm

11:20

12.1 C

1018.6 hpa

87 %

8.0 km/h aus 117

16.1 km/h aus NNE

10.0 C

11.4 C

11.4 C

12.1 C

254 W/m

0.00 mm

11:25

12.6 C

1018.6 hpa

84 %

9.7 km/h aus 117

17.7 km/h aus NNW

9.9 C

11.7 C

11.7 C

12.5 C

326 W/m

0.00 mm

11:30

12.7 C

1018.5 hpa

84 %

8.0 km/h aus 117

19.3 km/h aus N

10.0 C

12.1 C

12.2 C

12.6 C

251 W/m

0.00 mm

11:35

12.8 C

1018.5 hpa

83 %

11.3 km/h aus 114

19.3 km/h aus N

10.0 C

11.7 C

11.8 C

12.7 C

272 W/m

0.00 mm

11:40

12.7 C

1018.5 hpa

84 %

8.0 km/h aus 115

17.7 km/h aus NNW

10.0 C

12.1 C

12.2 C

12.6 C

167 W/m

0.00 mm

11:45

12.7 C

1018.6 hpa

83 %

9.7 km/h aus 117

16.1 km/h aus N

9.9 C

11.8 C

11.9 C

12.6 C

148 W/m

0.00 mm

11:50

12.6 C

1018.6 hpa

83 %

9.7 km/h aus 117

19.3 km/h aus NNW

9.8 C

11.7 C

11.8 C

12.5 C

134 W/m

0.00 mm

11:55

12.6 C

1018.6 hpa

83 %

8.0 km/h aus 117

17.7 km/h aus NNW

9.8 C

11.9 C

12.1 C

12.5 C

81 W/m

0.00 mm

12:00

12.6 C

1018.6 hpa

83 %

9.7 km/h aus 115

20.9 km/h aus NNW

9.7 C

11.6 C

11.7 C

12.4 C

74 W/m

0.00 mm

12:05

12.5 C

1018.6 hpa

83 %

9.7 km/h aus 116

22.5 km/h aus N

9.7 C

11.6 C

11.7 C

12.4 C

113 W/m

0.00 mm

12:10

12.5 C

1018.6 hpa

83 %

8.0 km/h aus 117

27.4 km/h aus N

9.7 C

11.8 C

11.9 C

12.4 C

152 W/m

0.00 mm

12:15

12.5 C

1018.6 hpa

83 %

8.0 km/h aus 117

17.7 km/h aus N

9.7 C

11.8 C

11.9 C

12.4 C

200 W/m

0.00 mm

12:20

12.6 C

1018.6 hpa

83 %

6.4 km/h aus 116

17.7 km/h aus NNE

9.8 C

12.3 C

12.4 C

12.5 C

197 W/m

0.00 mm

12:25

12.7 C

1018.6 hpa

82 %

9.7 km/h aus 114

19.3 km/h aus NNE

9.7 C

11.8 C

11.9 C

12.6 C

148 W/m

0.00 mm

12:30

12.7 C

1018.6 hpa

82 %

6.4 km/h aus 115

17.7 km/h aus NNE

9.7 C

12.4 C

12.5 C

12.6 C

200 W/m

0.00 mm

12:35

12.8 C

1018.6 hpa

82 %

4.8 km/h aus 117

14.5 km/h aus N

9.8 C

12.7 C

12.8 C

12.7 C

246 W/m

0.00 mm

12:40

13.1 C

1018.6 hpa

80 %

8.0 km/h aus 116

20.9 km/h aus NNE

9.7 C

12.5 C

12.7 C

12.9 C

267 W/m

0.00 mm

12:45

13.3 C

1018.6 hpa

80 %

6.4 km/h aus 117

11.3 km/h aus N

9.9 C

13.0 C

13.2 C

13.1 C

319 W/m

0.00 mm

12:50

13.4 C

1018.6 hpa

80 %

6.4 km/h aus 115

11.3 km/h aus NNW

10.0 C

13.1 C

13.3 C

13.2 C

239 W/m

0.00 mm

12:55

13.4 C

1018.6 hpa

80 %

8.0 km/h aus 115

16.1 km/h aus N

10.0 C

12.8 C

13.0 C

13.2 C

201 W/m

0.00 mm

13:00

13.3 C

1018.6 hpa

80 %

4.8 km/h aus 117

9.7 km/h aus NE

10.0 C

13.2 C

13.3 C

13.2 C

159 W/m

0.00 mm

13:05

13.4 C

1018.6 hpa

80 %

4.8 km/h aus 117

9.7 km/h aus N

10.1 C

13.3 C

13.4 C

13.3 C

253 W/m

0.00 mm

13:10

13.6 C

1018.6 hpa

78 %

6.4 km/h aus 117

14.5 km/h aus N

9.8 C

13.3 C

13.5 C

13.3 C

182 W/m

0.00 mm

13:15

13.6 C

1018.5 hpa

77 %

8.0 km/h aus 115

17.7 km/h aus NE

9.6 C

12.9 C

13.2 C

13.3 C

130 W/m

0.00 mm

13:20

13.5 C

1018.5 hpa

77 %

8.0 km/h aus 115

19.3 km/h aus N

9.5 C

12.8 C

13.1 C

13.2 C

194 W/m

0.00 mm

13:25

13.7 C

1018.5 hpa

77 %

9.7 km/h aus 117

17.7 km/h aus NNW

9.8 C

12.9 C

13.1 C

13.5 C

288 W/m

0.00 mm

13:30

13.9 C

1018.4 hpa

77 %

9.7 km/h aus 116

16.1 km/h aus NNW

9.9 C

13.1 C

13.3 C

13.7 C

258 W/m

0.00 mm

13:35

13.9 C

1018.4 hpa

75 %

6.4 km/h aus 117

14.5 km/h aus N

9.5 C

13.6 C

13.9 C

13.6 C

231 W/m

0.00 mm

13:40

13.8 C

1018.4 hpa

75 %

11.3 km/h aus 113

19.3 km/h aus N

9.4 C

12.7 C

13.0 C

13.5 C

178 W/m

0.00 mm

13:45

13.8 C

1018.3 hpa

75 %

8.0 km/h aus 115

20.9 km/h aus NNE

9.4 C

13.2 C

13.4 C

13.5 C

189 W/m

0.00 mm

13:50

13.8 C

1018.3 hpa

74 %

6.4 km/h aus 117

16.1 km/h aus NNW

9.3 C

13.5 C

13.8 C

13.5 C

182 W/m

0.00 mm

13:55

13.8 C

1018.3 hpa

72 %

9.7 km/h aus 116

20.9 km/h aus N

8.8 C

12.8 C

13.2 C

13.4 C

228 W/m

0.00 mm

14:00

14.1 C

1018.2 hpa

73 %

8.0 km/h aus 116

19.3 km/h aus NE

9.3 C

13.4 C

13.8 C

13.7 C

303 W/m

0.00 mm

14:05

14.1 C

1018.2 hpa

71 %

11.3 km/h aus 114

19.3 km/h aus NNE

8.9 C

13.0 C

13.4 C

13.7 C

273 W/m

0.00 mm

14:10

14.2 C

1018.2 hpa

71 %

8.0 km/h aus 116

17.7 km/h aus N

9.0 C

13.5 C

13.9 C

13.8 C

276 W/m

0.00 mm

14:15

14.2 C

1018.1 hpa

71 %

9.7 km/h aus 117

16.1 km/h aus NNE

9.0 C

13.3 C

13.7 C

13.8 C

321 W/m

0.00 mm

14:20

14.5 C

1018.1 hpa

72 %

8.0 km/h aus 117

14.5 km/h aus N

9.5 C

13.9 C

14.3 C

14.1 C

340 W/m

0.00 mm

14:25

14.4 C

1018.1 hpa

73 %

8.0 km/h aus 117

17.7 km/h aus NW

9.7 C

13.9 C

14.2 C

14.1 C

216 W/m

0.00 mm

14:30

14.3 C

1018.0 hpa

73 %

8.0 km/h aus 114

14.5 km/h aus N

9.5 C

13.7 C

14.0 C

13.9 C

176 W/m

0.00 mm

14:35

14.0 C

1018.0 hpa

72 %

11.3 km/h aus 116

17.7 km/h aus NW

9.0 C

12.8 C

13.2 C

13.6 C

176 W/m

0.00 mm

14:40

13.9 C

1018.0 hpa

73 %

8.0 km/h aus 117

17.7 km/h aus NNE

9.2 C

13.3 C

13.6 C

13.6 C

196 W/m

0.00 mm

14:45

14.1 C

1017.9 hpa

72 %

8.0 km/h aus 116

17.7 km/h aus N

9.1 C

13.4 C

13.8 C

13.7 C

263 W/m

0.00 mm

14:50

14.3 C

1017.9 hpa

72 %

8.0 km/h aus 117

20.9 km/h aus N

9.3 C

13.6 C

14.0 C

13.9 C

311 W/m

0.00 mm

14:55

14.3 C

1017.9 hpa

71 %

8.0 km/h aus 113

16.1 km/h aus NNW

9.1 C

13.6 C

14.0 C

13.9 C

230 W/m

0.00 mm

15:00

14.2 C

1017.8 hpa

72 %

11.3 km/h aus 116

17.7 km/h aus NNW

9.2 C

13.1 C

13.4 C

13.8 C

178 W/m

0.00 mm

15:05

14.3 C

1017.8 hpa

71 %

11.3 km/h aus 117

20.9 km/h aus NNW

9.1 C

13.3 C

13.7 C

13.9 C

261 W/m

0.00 mm

15:10

14.6 C

1017.8 hpa

71 %

11.3 km/h aus 117

20.9 km/h aus N

9.4 C

13.5 C

13.9 C

14.2 C

239 W/m

0.00 mm

15:15

14.6 C

1017.9 hpa

70 %

9.7 km/h aus 117

24.1 km/h aus N

9.1 C

13.7 C

14.1 C

14.1 C

180 W/m

0.00 mm

15:20

14.5 C

1017.9 hpa

69 %

9.7 km/h aus 114

17.7 km/h aus N

8.9 C

13.6 C

14.1 C

14.1 C

132 W/m

0.00 mm

15:25

14.3 C

1017.9 hpa

71 %

9.7 km/h aus 116

19.3 km/h aus N

9.1 C

13.5 C

13.9 C

13.9 C

178 W/m

0.00 mm

15:30

14.4 C

1017.7 hpa

71 %

11.3 km/h aus 117

20.9 km/h aus N

9.2 C

13.4 C

13.8 C

14.1 C

193 W/m

0.00 mm

15:35

14.3 C

1017.7 hpa

72 %

9.7 km/h aus 116

17.7 km/h aus N

9.3 C

13.4 C

13.8 C

13.9 C

178 W/m

0.00 mm

15:40

14.7 C

1017.7 hpa

72 %

8.0 km/h aus 117

19.3 km/h aus N

9.7 C

14.1 C

14.5 C

14.3 C

228 W/m

0.00 mm

15:45

14.7 C

1017.6 hpa

70 %

9.7 km/h aus 115

17.7 km/h aus NNE

9.3 C

13.9 C

14.3 C

14.3 C

197 W/m

0.00 mm

15:50

14.9 C

1017.6 hpa

71 %

8.0 km/h aus 115

20.9 km/h aus NNW

9.7 C

14.4 C

14.8 C

14.6 C

242 W/m

0.00 mm

15:55

14.7 C

1017.6 hpa

71 %

12.9 km/h aus 117

24.1 km/h aus NNW

9.5 C

13.3 C

13.7 C

14.3 C

166 W/m

0.00 mm

16:00

14.3 C

1017.6 hpa

73 %

12.9 km/h aus 117

24.1 km/h aus NNW

9.6 C

12.9 C

13.3 C

14.0 C

127 W/m

0.00 mm

16:05

14.1 C

1017.6 hpa

74 %

11.3 km/h aus 116

22.5 km/h aus NW

9.5 C

13.1 C

13.4 C

13.8 C

136 W/m

0.00 mm

16:10

14.1 C

1017.6 hpa

75 %

9.7 km/h aus 115

17.7 km/h aus N

9.7 C

13.3 C

13.6 C

13.8 C

143 W/m

0.00 mm

16:15

14.1 C

1017.7 hpa

76 %

11.3 km/h aus 116

20.9 km/h aus NNW

9.9 C

13.1 C

13.3 C

13.8 C

111 W/m

0.00 mm

16:20

13.9 C

1017.7 hpa

76 %

9.7 km/h aus 117

19.3 km/h aus N

9.7 C

13.1 C

13.3 C

13.6 C

101 W/m

0.00 mm

16:25

13.9 C

1017.7 hpa

76 %

14.5 km/h aus 117

29.0 km/h aus NNW

9.7 C

12.0 C

12.3 C

13.6 C

52 W/m

0.00 mm

16:30

13.8 C

1017.7 hpa

76 %

12.9 km/h aus 116

20.9 km/h aus NNW

9.7 C

12.4 C

12.7 C

13.6 C

37 W/m

0.00 mm

16:35

13.7 C

1017.7 hpa

77 %

11.3 km/h aus 115

19.3 km/h aus NNW

9.8 C

12.7 C

12.9 C

13.5 C

36 W/m

0.00 mm

16:40

13.6 C

1017.7 hpa

77 %

11.3 km/h aus 116

20.9 km/h aus N

9.7 C

12.6 C

12.8 C

13.4 C

33 W/m

0.00 mm

16:45

13.6 C

1017.8 hpa

78 %

9.7 km/h aus 117

20.9 km/h aus NNW

9.8 C

12.7 C

12.9 C

13.3 C

26 W/m

0.00 mm

16:50

13.4 C

1017.8 hpa

78 %

9.7 km/h aus 117

20.9 km/h aus N

9.7 C

12.6 C

12.8 C

13.2 C

17 W/m

0.00 mm

16:55

13.4 C

1017.8 hpa

79 %

11.3 km/h aus 117

19.3 km/h aus NNW

9.8 C

12.3 C

12.5 C

13.2 C

18 W/m

0.00 mm

17:00

13.3 C

1017.9 hpa

79 %

11.3 km/h aus 114

17.7 km/h aus N

9.7 C

12.2 C

12.4 C

13.1 C

25 W/m

0.00 mm

17:05

13.2 C

1017.9 hpa

79 %

11.3 km/h aus 115

22.5 km/h aus N

9.7 C

12.1 C

12.3 C

13.0 C

26 W/m

0.00 mm

17:10

13.2 C

1017.9 hpa

79 %

9.7 km/h aus 116

17.7 km/h aus N

9.6 C

12.2 C

12.4 C

12.9 C

32 W/m

0.00 mm

17:15

13.1 C

1018.0 hpa

79 %

11.3 km/h aus 117

24.1 km/h aus N

9.5 C

11.9 C

12.2 C

12.9 C

35 W/m

0.00 mm

17:20

13.1 C

1018.0 hpa

79 %

12.9 km/h aus 117

27.4 km/h aus N

9.5 C

11.6 C

11.8 C

12.9 C

40 W/m

0.00 mm

17:25

13.1 C

1018.0 hpa

79 %

11.3 km/h aus 116

22.5 km/h aus N

9.5 C

11.9 C

12.1 C

12.9 C

36 W/m

0.00 mm

17:30

13.0 C

1018.0 hpa

79 %

12.9 km/h aus 115

22.5 km/h aus NNW

9.4 C

11.5 C

11.7 C

12.8 C

26 W/m

0.00 mm

17:35

13.0 C

1018.0 hpa

80 %

11.3 km/h aus 117

20.9 km/h aus NNW

9.6 C

11.9 C

12.1 C

12.8 C

24 W/m

0.00 mm

17:40

12.9 C

1018.0 hpa

80 %

9.7 km/h aus 117

17.7 km/h aus NNW

9.6 C

12.1 C

12.2 C

12.8 C

25 W/m

0.00 mm

17:45

12.9 C

1018.0 hpa

80 %

9.7 km/h aus 117

19.3 km/h aus N

9.6 C

12.1 C

12.2 C

12.8 C

29 W/m

0.00 mm

17:50

12.9 C

1018.0 hpa

80 %

11.3 km/h aus 116

24.1 km/h aus N

9.5 C

11.7 C

11.9 C

12.7 C

29 W/m

0.00 mm

17:55

12.8 C

1018.0 hpa

80 %

9.7 km/h aus 114

19.3 km/h aus N

9.4 C

11.8 C

12.0 C

12.6 C

26 W/m

0.00 mm

18:00

12.8 C

1018.1 hpa

80 %

11.3 km/h aus 117

22.5 km/h aus NNW

9.4 C

11.6 C

11.8 C

12.6 C

21 W/m

0.00 mm

18:05

12.7 C

1018.1 hpa

81 %

9.7 km/h aus 117

19.3 km/h aus NNW

9.5 C

11.8 C

11.9 C

12.6 C

16 W/m

0.00 mm

18:10

12.7 C

1018.1 hpa

82 %

9.7 km/h aus 117

19.3 km/h aus N

9.7 C

11.8 C

11.9 C

12.6 C

14 W/m

0.00 mm

18:15

12.6 C

1018.1 hpa

82 %

11.3 km/h aus 116

17.7 km/h aus NNW

9.6 C

11.4 C

11.6 C

12.5 C

11 W/m

0.00 mm

18:20

12.6 C

1018.1 hpa

82 %

12.9 km/h aus 114

24.1 km/h aus N

9.6 C

11.0 C

11.1 C

12.4 C

9 W/m

0.00 mm

18:25

12.4 C

1018.1 hpa

83 %

12.9 km/h aus 118

20.9 km/h aus NW

9.6 C

10.9 C

11.0 C

12.3 C

7 W/m

0.00 mm

18:30

12.4 C

1018.2 hpa

83 %

14.5 km/h aus 117

22.5 km/h aus N

9.6 C

10.4 C

10.6 C

12.3 C

6 W/m

0.00 mm

18:35

12.3 C

1018.2 hpa

84 %

12.9 km/h aus 116

20.9 km/h aus NNW

9.7 C

10.7 C

10.8 C

12.2 C

1 W/m

0.00 mm

18:40

12.2 C

1018.2 hpa

84 %

11.3 km/h aus 117

19.3 km/h aus N

9.5 C

11.0 C

11.1 C

12.1 C

0 W/m

0.00 mm

18:45

12.1 C

1018.3 hpa

84 %

9.7 km/h aus 114

16.1 km/h aus NW

9.5 C

11.2 C

11.2 C

12.1 C

0 W/m

0.00 mm

18:50

12.1 C

1018.3 hpa

85 %

9.7 km/h aus 116

16.1 km/h aus NNW

9.6 C

11.1 C

11.1 C

12.0 C

0 W/m

0.00 mm

18:55

12.0 C

1018.3 hpa

85 %

9.7 km/h aus 117

19.3 km/h aus NNW

9.6 C

11.0 C

11.1 C

11.9 C

0 W/m

0.00 mm

19:00

12.0 C

1018.4 hpa

85 %

9.7 km/h aus 117

17.7 km/h aus NNW

9.6 C

11.0 C

11.1 C

11.9 C

0 W/m

0.00 mm

19:05

11.9 C

1018.4 hpa

86 %

11.3 km/h aus 117

22.5 km/h aus NW

9.7 C

10.7 C

10.8 C

11.9 C

0 W/m

0.00 mm

19:10

11.9 C

1018.4 hpa

86 %

9.7 km/h aus 114

24.1 km/h aus NW

9.6 C

10.9 C

10.9 C

11.8 C

0 W/m

0.00 mm

19:15

11.8 C

1018.5 hpa

86 %

12.9 km/h aus 115

22.5 km/h aus N

9.6 C

10.2 C

10.3 C

11.8 C

0 W/m

0.00 mm

19:20

11.8 C

1018.5 hpa

86 %

11.3 km/h aus 117

22.5 km/h aus NNW

9.5 C

10.5 C

10.6 C

11.7 C

0 W/m

0.00 mm

19:25

11.8 C

1018.5 hpa

87 %

11.3 km/h aus 116

20.9 km/h aus N

9.7 C

10.6 C

10.6 C

11.8 C

0 W/m

0.00 mm

19:30

11.7 C

1018.6 hpa

87 %

8.0 km/h aus 118

14.5 km/h aus NNW

9.6 C

11.0 C

11.0 C

11.7 C

0 W/m

0.00 mm

19:35

11.7 C

1018.6 hpa

87 %

8.0 km/h aus 115

14.5 km/h aus NNW

9.6 C

11.0 C

11.0 C

11.7 C

0 W/m

0.00 mm

19:40

11.7 C

1018.6 hpa

87 %

8.0 km/h aus 114

16.1 km/h aus NNW

9.6 C

11.0 C

11.0 C

11.7 C

0 W/m

0.00 mm

19:45

11.7 C

1018.6 hpa

87 %

8.0 km/h aus 117

14.5 km/h aus NNW

9.6 C

11.0 C

11.0 C

11.7 C

0 W/m

0.00 mm

19:50

11.7 C

1018.6 hpa

88 %

9.7 km/h aus 117

16.1 km/h aus NNE

9.8 C

10.7 C

10.7 C

11.7 C

0 W/m

0.00 mm

19:55

11.7 C

1018.6 hpa

88 %

6.4 km/h aus 117

16.1 km/h aus N

9.7 C

11.3 C

11.3 C

11.7 C

0 W/m

0.00 mm

20:00

11.7 C

1018.6 hpa

88 %

6.4 km/h aus 117

14.5 km/h aus N

9.7 C

11.3 C

11.3 C

11.7 C

0 W/m

0.00 mm

20:05

11.6 C

1018.6 hpa

88 %

8.0 km/h aus 114

14.5 km/h aus N

9.7 C

10.9 C

10.9 C

11.6 C

0 W/m

0.00 mm

20:10

11.6 C

1018.6 hpa

88 %

9.7 km/h aus 116

16.1 km/h aus NNW

9.7 C

10.6 C

10.6 C

11.6 C

0 W/m

0.00 mm

20:15

11.6 C

1018.6 hpa

88 %

8.0 km/h aus 117

16.1 km/h aus NNW

9.6 C

10.8 C

10.8 C

11.6 C

0 W/m

0.00 mm

20:20

11.6 C

1018.6 hpa

89 %

8.0 km/h aus 117

14.5 km/h aus NNW

9.8 C

10.9 C

10.8 C

11.6 C

0 W/m

0.00 mm

20:25

11.6 C

1018.6 hpa

89 %

8.0 km/h aus 117

14.5 km/h aus NNW

9.8 C

10.9 C

10.8 C

11.6 C

0 W/m

0.00 mm

20:30

11.5 C

1018.6 hpa

89 %

6.4 km/h aus 114

12.9 km/h aus N

9.7 C

11.2 C

11.1 C

11.6 C

0 W/m

0.00 mm

20:35

11.4 C

1018.6 hpa

90 %

6.4 km/h aus 115

12.9 km/h aus NNW

9.9 C

11.1 C

11.1 C

11.5 C

0 W/m

0.25 mm

20:40

11.4 C

1018.6 hpa

90 %

8.0 km/h aus 117

14.5 km/h aus NNW

9.9 C

10.8 C

10.7 C

11.5 C

0 W/m

0.00 mm

20:45

11.4 C

1018.6 hpa

90 %

6.4 km/h aus 117

11.3 km/h aus NNE

9.9 C

11.1 C

11.1 C

11.5 C

0 W/m

0.00 mm

20:50

11.4 C

1018.6 hpa

91 %

6.4 km/h aus 117

14.5 km/h aus NNW

10.0 C

11.1 C

11.0 C

11.5 C

0 W/m

0.00 mm

20:55

11.3 C

1018.6 hpa

91 %

6.4 km/h aus 115

11.3 km/h aus N

9.9 C

11.0 C

10.9 C

11.4 C

0 W/m

0.00 mm

21:00

11.3 C

1018.6 hpa

91 %

6.4 km/h aus 115

9.7 km/h aus NNW

9.9 C

10.9 C

10.8 C

11.4 C

0 W/m

0.00 mm

21:05

11.3 C

1018.6 hpa

91 %

6.4 km/h aus 115

11.3 km/h aus N

9.9 C

10.9 C

10.8 C

11.4 C

0 W/m

0.25 mm

21:10

11.3 C

1018.6 hpa

91 %

8.0 km/h aus 117

19.3 km/h aus N

9.9 C

10.6 C

10.5 C

11.4 C

0 W/m

0.25 mm

21:15

11.2 C

1018.6 hpa

92 %

6.4 km/h aus 116

17.7 km/h aus NNW

10.0 C

10.9 C

10.8 C

11.3 C

0 W/m

0.25 mm

21:20

11.2 C

1018.6 hpa

92 %

8.0 km/h aus 117

17.7 km/h aus NNW

9.9 C

10.5 C

10.4 C

11.3 C

0 W/m

0.00 mm

21:25

11.2 C

1018.6 hpa

92 %

6.4 km/h aus 115

11.3 km/h aus N

9.9 C

10.8 C

10.7 C

11.3 C

0 W/m

0.25 mm

21:30

11.1 C

1018.7 hpa

92 %

6.4 km/h aus 114

12.9 km/h aus N

9.9 C

10.8 C

10.7 C

11.2 C

0 W/m

0.25 mm

21:35

11.1 C

1018.7 hpa

92 %

6.4 km/h aus 117

12.9 km/h aus N

9.8 C

10.7 C

10.6 C

11.2 C

0 W/m

0.25 mm

21:40

11.1 C

1018.7 hpa

92 %

6.4 km/h aus 118

11.3 km/h aus NNE

9.8 C

10.7 C

10.6 C

11.2 C

0 W/m

0.25 mm

21:45

11.0 C

1018.7 hpa

92 %

6.4 km/h aus 116

16.1 km/h aus NNW

9.7 C

10.7 C

10.6 C

11.1 C

0 W/m

0.00 mm

21:50

10.9 C

1018.7 hpa

92 %

6.4 km/h aus 117

20.9 km/h aus NNE

9.7 C

10.6 C

10.4 C

11.1 C

0 W/m

0.00 mm

21:55

10.9 C

1018.7 hpa

93 %

8.0 km/h aus 114

17.7 km/h aus NNE

9.9 C

10.3 C

10.1 C

11.1 C

0 W/m

0.25 mm

22:00

10.8 C

1018.8 hpa

93 %

9.7 km/h aus 116

25.7 km/h aus N

9.7 C

9.9 C

9.7 C

11.0 C

0 W/m

0.51 mm

22:05

10.8 C

1018.8 hpa

93 %

9.7 km/h aus 117

22.5 km/h aus N

9.7 C

9.9 C

9.7 C

11.0 C

0 W/m

0.25 mm

22:10

10.7 C

1018.8 hpa

93 %

16.1 km/h aus 117

32.2 km/h aus N

9.6 C

8.3 C

8.2 C

10.8 C

0 W/m

0.00 mm

22:15

10.5 C

1019.0 hpa

92 %

11.3 km/h aus 117

22.5 km/h aus N

9.3 C

9.2 C

9.1 C

10.7 C

0 W/m

0.25 mm

22:20

10.3 C

1019.0 hpa

92 %

9.7 km/h aus 114

17.7 km/h aus N

9.1 C

9.3 C

9.1 C

10.5 C

0 W/m

0.00 mm

22:25

10.2 C

1019.0 hpa

93 %

9.7 km/h aus 114

25.7 km/h aus N

9.1 C

9.2 C

9.0 C

10.4 C

0 W/m

0.00 mm

22:30

10.2 C

1019.0 hpa

92 %

8.0 km/h aus 116

19.3 km/h aus N

8.9 C

9.4 C

9.2 C

10.3 C

0 W/m

0.00 mm

22:35

10.1 C

1019.0 hpa

93 %

6.4 km/h aus 117

19.3 km/h aus N

9.0 C

9.7 C

9.5 C

10.3 C

0 W/m

0.00 mm

22:40

10.1 C

1019.0 hpa

93 %

6.4 km/h aus 117

12.9 km/h aus N

9.0 C

9.7 C

9.4 C

10.3 C

0 W/m

0.25 mm

22:45

10.0 C

1019.1 hpa

93 %

9.7 km/h aus 118

17.7 km/h aus N

8.9 C

8.9 C

8.7 C

10.2 C

0 W/m

0.00 mm

22:50

10.0 C

1019.1 hpa

93 %

8.0 km/h aus 114

17.7 km/h aus N

8.9 C

9.2 C

9.0 C

10.2 C

0 W/m

0.00 mm

22:55

9.9 C

1019.1 hpa

93 %

6.4 km/h aus 115

12.9 km/h aus N

8.9 C

9.6 C

9.3 C

10.2 C

0 W/m

0.00 mm

23:00

9.9 C

1019.1 hpa

93 %

8.0 km/h aus 117

14.5 km/h aus NNE

8.9 C

9.2 C

8.9 C

10.2 C

0 W/m

0.00 mm

23:05

9.9 C

1019.1 hpa

93 %

8.0 km/h aus 117

14.5 km/h aus NNW

8.8 C

9.1 C

8.9 C

10.1 C

0 W/m

0.00 mm

23:10

9.8 C

1019.1 hpa

93 %

6.4 km/h aus 117

14.5 km/h aus NNW

8.8 C

9.4 C

9.2 C

10.1 C

0 W/m

0.00 mm

23:15

9.8 C

1019.2 hpa

93 %

8.0 km/h aus 116

17.7 km/h aus N

8.8 C

9.0 C

8.8 C

10.1 C

0 W/m

0.00 mm

23:20

9.8 C

1019.2 hpa

93 %

8.0 km/h aus 113

17.7 km/h aus NNE

8.7 C

8.9 C

8.7 C

10.0 C

0 W/m

0.00 mm

23:25

9.8 C

1019.2 hpa

93 %

8.0 km/h aus 117

17.7 km/h aus NNE

8.7 C

8.9 C

8.7 C

10.0 C

0 W/m

0.00 mm

23:30

9.7 C

1019.4 hpa

93 %

8.0 km/h aus 115

19.3 km/h aus NNE

8.6 C

8.9 C

8.7 C

9.9 C

0 W/m

0.00 mm

23:35

9.7 C

1019.4 hpa

93 %

8.0 km/h aus 116

19.3 km/h aus NNE

8.6 C

8.8 C

8.6 C

9.9 C

0 W/m

0.00 mm

23:40

9.7 C

1019.4 hpa

94 %

6.4 km/h aus 116

14.5 km/h aus NNW

8.7 C

9.3 C

9.0 C

9.9 C

0 W/m

0.00 mm

23:45

9.7 C

1019.3 hpa

93 %

6.4 km/h aus 116

14.5 km/h aus N

8.6 C

9.2 C

9.0 C

9.9 C

0 W/m

0.00 mm

23:50

9.7 C

1019.3 hpa

93 %

6.4 km/h aus 115

16.1 km/h aus N

8.6 C

9.2 C

9.0 C

9.9 C

0 W/m

0.00 mm

23:55

9.6 C

1019.3 hpa

93 %

6.4 km/h aus 117

12.9 km/h aus ENE

8.5 C

9.2 C

8.9 C

9.8 C

0 W/m

0.00 mm